Weather History for Broomfield, CO

Change the Weather History Date:

Saturday, November 5, 2011

  Actual Average Record
Temperature  
Mean Temperature 48 °F -  
Max Temperature 59 °F 51 °F 73 °F (2001)
Min Temperature 37 °F 32 °F 19 °F (1992)
Degree Days  
Heating Degree Days 17    
Moisture  
Dew Point 23 °F    
Average Humidity 41    
Maximum Humidity 53    
Minimum Humidity 27    
Precipitation  
Precipitation 0.00 in - - ()
Sea Level Pressure  
Sea Level Pressure 29.48 in    
Wind  
Wind Speed 9 mph (SSW)    
Max Wind Speed 34 mph    
Max Gust Speed 46 mph    
Visibility 12 miles    
Events Rain    
Averages and records for this station are not official NWS values.
T = Trace of Precipitation, MM = Missing Value Source: NWS Daily Summary

Daily Weather History Graph

Daily Weather History Graph

Search for Another Location

Airport:

Trip Planner

Search our weather history database for the weather conditions in past years. The results will help you decide how hot, cold, wet, or windy it might be!

Date:

Astronomy

Nov. 05, 2011 Rise Set
Actual Time 7:33 AM MDT 5:53 PM MDT
Civil Twilight 7:05 AM MDT 6:22 PM MDT
Nautical Twilight 6:33 AM MDT 6:54 PM MDT
Astronomical Twilight 6:01 AM MDT 7:25 PM MDT
Moon 3:12 PM MDT (11/5) 2:46 AM MDT (11/5)
Length of Visible Light 11h 16m
Length of Day
10h 20m
Waxing Gibbous, 78% of the Moon is Illuminated
Nov 5
Waxing Gibbous
Nov 10
Full
Nov 18
Last Quarter
Nov 24
New
Dec 2
First Quarter

Hourly Weather History & Observations

Time (MDT) Temp. Windchill Dew Point Humidity Pressure Visibility Wind Dir Wind Speed Gust Speed Precip Events Conditions
12:07 AM 48.2 °F - 26.6 °F 43% 29.63 in 10.0 mi Calm Calm - N/A   Clear
12:27 AM 44.6 °F 42.2 °F 28.4 °F 53% 29.63 in 10.0 mi South 4.6 mph - N/A   Clear
12:47 AM 44.6 °F 43.1 °F 28.4 °F 53% 29.61 in 10.0 mi WSW 3.5 mph - N/A   Clear
1:05 AM 42.8 °F 37.0 °F 26.6 °F 53% 29.60 in 10.0 mi South 10.4 mph - N/A   Clear
1:47 AM 48.2 °F - 24.8 °F 40% 29.59 in 10.0 mi South 10.4 mph - N/A   Clear
2:06 AM 46.4 °F 42.4 °F 24.8 °F 43% 29.58 in 10.0 mi SSE 8.1 mph - N/A   Unknown
2:27 AM 46.4 °F 41.9 °F 24.8 °F 43% 29.57 in 10.0 mi SE 9.2 mph - N/A   Clear
2:47 AM 46.4 °F 41.1 °F 23.0 °F 40% 29.56 in 10.0 mi SE 11.5 mph - N/A   Clear
3:07 AM 46.4 °F 42.4 °F 23.0 °F 40% 29.55 in 10.0 mi SE 8.1 mph - N/A   Clear
3:27 AM 46.4 °F 44.3 °F 23.0 °F 40% 29.55 in 10.0 mi South 4.6 mph - N/A   Clear
3:47 AM 46.4 °F 45.2 °F 23.0 °F 40% 29.54 in 10.0 mi South 3.5 mph - N/A   Clear
4:07 AM 46.4 °F 44.3 °F 23.0 °F 40% 29.52 in 10.0 mi South 4.6 mph - N/A   Clear
4:27 AM 46.4 °F 45.2 °F 23.0 °F 40% 29.52 in 10.0 mi SSE 3.5 mph - N/A   Clear
4:47 AM 44.6 °F - 23.0 °F 43% 29.51 in 10.0 mi Calm Calm - N/A   Clear
5:07 AM 44.6 °F 43.1 °F 23.0 °F 43% 29.49 in 10.0 mi South 3.5 mph - N/A   Clear
5:26 AM 44.6 °F 42.2 °F 23.0 °F 43% 29.48 in 10.0 mi South 4.6 mph - N/A   Clear
5:47 AM 44.6 °F 41.4 °F 24.8 °F 46% 29.47 in 10.0 mi South 5.8 mph - N/A   Clear
5:48 AM 44.6 °F 41.4 °F 24.8 °F 46% 29.47 in 25.0 mi South 5.8 mph - N/A   Scattered Clouds
6:50 AM 44.6 °F 43.1 °F 24.8 °F 46% 29.43 in 25.0 mi SSE 3.5 mph - N/A   Scattered Clouds
8:47 AM 48.2 °F - 23.0 °F 37% 29.40 in 30.0 mi SSW 15.0 mph - N/A   Mostly Cloudy
9:46 AM 53.6 °F - 24.8 °F 33% 29.36 in 30.0 mi South 21.9 mph 28.8 mph N/A   Mostly Cloudy
10:47 AM 53.6 °F - 24.8 °F 33% 29.32 in 30.0 mi South 13.8 mph 19.6 mph N/A   Mostly Cloudy
11:56 AM 59.0 °F - 24.8 °F 27% 29.30 in 30.0 mi South 19.6 mph 28.8 mph N/A   Scattered Clouds
12:47 PM 57.2 °F - 26.6 °F 31% 29.28 in 25.0 mi NNW 19.6 mph - N/A   Mostly Cloudy
1:47 PM 48.2 °F - 30.2 °F 50% 29.26 in 25.0 mi NNW 13.8 mph - N/A   Mostly Cloudy
2:47 PM 48.2 °F - 28.4 °F 46% 29.26 in 20.0 mi NNW 13.8 mph - N/A   Overcast
3:45 PM 48.2 °F - 28.4 °F 46% 29.28 in 20.0 mi NW 6.9 mph - N/A   Overcast
4:46 PM 48.2 °F - 28.4 °F 46% 29.32 in 15.0 mi NW 5.8 mph - N/A   Overcast
5:47 PM 48.2 °F - 30.2 °F 50% 29.41 in 20.0 mi NNW 15.0 mph 21.9 mph N/A Rain Light Rain
6:48 PM 41.0 °F 29.8 °F 23.0 °F 49% 29.43 in 25.0 mi WSW 29.9 mph 42.6 mph N/A   Mostly Cloudy
7:45 PM 44.6 °F 34.1 °F 15.8 °F 31% 29.48 in 25.0 mi WSW 34.5 mph 46.0 mph N/A   Scattered Clouds
8:48 PM 41.0 °F 31.1 °F 12.2 °F 31% 29.52 in 20.0 mi WSW 23.0 mph 28.8 mph N/A   Partly Cloudy
9:48 PM 39.2 °F 30.2 °F 12.2 °F 33% 29.56 in 20.0 mi West 17.3 mph 29.9 mph N/A   Partly Cloudy
11:07 PM 37.4 °F 26.1 °F 14.0 °F 38% 29.60 in 10.0 mi WNW 24.2 mph 35.7 mph N/A   Clear
11:27 PM 37.4 °F 27.5 °F 12.2 °F 36% 29.62 in 10.0 mi WNW 18.4 mph 28.8 mph N/A   Clear
11:47 PM 37.4 °F 26.4 °F 12.2 °F 36% 29.62 in 10.0 mi WNW 23.0 mph 33.4 mph N/A   Clear